Location: Table Mountain
(47.2500°N, 120.5778°W)
Time: 08:36:12
(UTC-07:00)

Vanguard 3 - Visible Passes

Search period start: 23 April 2018 00:00
Search period end: 03 May 2018 00:00
Orbit: 508 x 3264 km, 33.3° (Epoch: 22 April)

Date Brightness Start Highest point End Pass type
(mag) Time Alt. Az. Time Alt. Az. Time Alt. Az.
28 Apr 8.4 21:11:07 10° S 21:11:25 10° S 21:11:43 10° S visible
30 Apr 8.4 20:54:21 10° SSW 20:55:40 11° S 20:56:56 10° SSE visible
01 May 8.5 21:52:51 10° SSW 21:52:57 10° S 21:52:57 10° S visible
